Powrót do katalogu

THORAD AGENA D DEB

AktywnyPO
NORAD 4612·DEBRIS·🇺🇸 United States

Wystrzelony Apr 8, 1970 z Vandenberg Space Force Base

Loading…

Następne Przeloty (najbliższe 24 godziny)

TLE

ŚwieżeSource: Space-Track

Epoka: Sep 14, 2026, 17:49 UTC

1 04612U 70025Q   26257.74300088  .00000840  00000-0  54337-3 0  9996
2 04612  99.6485 182.7566 0082558  82.3237 278.7294 14.04196921857493

Śledź THORAD AGENA D DEB w czasie rzeczywistym z AllMySat

Download on the App Store